User: anonymous   Login
Location: Gellin
(53.4498°N, 14.3207°E)
Time: 01:42:30
(UTC+00:00)
Language:

Cosmos 1378 - Orbit

View from above orbital plane
View from above orbital plane
View from above satellite
View from above satellite

Ground track
Ground track

The orbit data is extracted from the following two-line orbital elements,

1 13271U 82059A   21136.17655749  .00000981  00000-0  39573-4 0  9994
2 13271  82.4669 218.8216 0006235 348.0893  12.0195 15.23619420127157
Epoch (UTC): 16 May 2021 04:14:14
Eccentricity: 0.0006235
inclination: 82.4669°
perigee height: 490 km
apogee height: 499 km
right ascension of ascending node: 218.8216°
argument of perigee: 348.0893°
revolutions per day: 15.23619420
mean anomaly at epoch: 12.0195°
orbit number at epoch: 12715

The dashed part of the orbit path shows where the satellite is in the earth's shadow,  

DLR